Location: Hall+in+Tirol
(47.2830°N, 11.5170°E)
Time: 23:29:58
(UTC+02:00)

Daily predictions for brighter satellites

Satellite Brightness Start Highest point End
(mag) Time Altitude Azimuth Time Altitude Azimuth Time Altitude Azimuth
Cosmos 2360 Rocket 3.1 20:33:32 10° SSE 20:38:09 27° ESE 20:42:46 10° NE
Cosmos 1980 Rocket 3.3 20:33:38 10° SW 20:39:05 52° WNW 20:44:35 10° NNE
SeaSat 1 3.4 20:37:45 10° NE 20:41:50 25° ESE 20:45:52 10° SSE
USA 238 DEB 4.1 20:36:50 10° NW 20:43:48 56° NE 20:50:48 10° ESE
USA 238 4.1 20:36:56 10° NW 20:43:54 56° NE 20:50:54 10° ESE
Cosmos 1850 Rocket 4.2 20:40:09 10° NNW 20:45:31 82° WSW 20:50:49 10° SSE
COSMOS 2428 4.3 20:43:27 10° SE 20:46:23 14° E 20:49:18 10° ENE
Meteor 1-19 Rocket 4.5 20:40:49 10° NNW 20:46:44 83° W 20:52:31 10° S
Cosmos 1420 Rocket 4.0 20:41:42 10° SSW 20:46:53 90° E 20:52:07 10° NNE
Cosmos 1452 Rocket 4.1 20:42:10 10° SSW 20:47:25 66° WNW 20:52:42 10° NNE
Cosmos 1607 4.2 20:43:30 10° NW 20:49:59 84° SW 20:56:28 10° SSE
Okean 2 Rocket 4.4 20:46:20 10° SSW 20:50:41 47° WNW 20:55:05 10° N
ATLAS 3B R/B 2.8 20:47:31 10° NW 20:54:19 67° NE 21:00:50 10° SE
Meteor 1-5 Rocket 4.3 20:53:55 10° SSE 20:58:59 48° E 21:04:05 10° NNE
Okean 2 4.1 20:57:10 10° N 21:00:57 35° ENE 21:04:44 10° SE
Meteor 2-4 Rocket 3.9 21:01:12 10° NNW 21:06:47 80° W 21:12:31 10° S
USA 267 4.3 21:03:34 10° SSE 21:09:36 39° SW 21:15:41 10° WNW
Resurs 1-3 4.4 21:05:47 10° S 21:10:04 53° W 21:14:23 10° NNW
Cosmos 220 Rocket 4.1 21:05:47 10° NNW 21:10:07 80° WSW 21:14:28 10° SSE
Cosmos 1975 4.4 21:10:33 14° ESE 21:12:10 18° E 21:14:52 10° NE
NOSS 2-3 (D) 3.9 21:08:44 10° SW 21:13:30 85° SE 21:19:11 10° NE
Abrixas rocket 2.2 21:11:27 10° WNW 21:14:44 87° N 21:17:10 17° ESE
Spot 2 Rocket 4.3 21:12:36 10° S 21:17:34 53° W 21:22:34 10° NNW
Cosmos 1025 Rocket 3.0 21:14:29 10° N 21:18:45 64° E 21:22:57 10° SSE
Cosmos 2266 Rocket 3.9 21:16:41 10° S 21:22:42 86° E 21:28:47 10° N
Cosmos 1300 Rocket 3.8 21:18:57 10° SSW 21:23:15 72° W 21:27:34 10° N
Okean 1 Rocket 3.0 21:21:26 10° S 21:25:47 83° E 21:30:13 10° N
Cosmos 1818 4.4 21:21:54 10° SSE 21:26:21 27° ESE 21:30:51 10° ENE
SOZ 4.0 21:24:54 10° WNW 21:27:28 88° SSW 21:28:23 30° ESE
Cosmos 1238 Rocket 4.4 21:22:14 10° N 21:28:46 50° ENE 21:33:37 16° SE
Cosmos 1536 3.4 21:25:28 10° SSW 21:29:29 60° WNW 21:33:32 10° N
ARGOS 3.7 21:26:26 17° SE 21:30:07 41° ENE 21:35:08 10° N
ERS-1 Rocket 3.2 21:26:55 16° SE 21:30:48 53° ENE 21:35:41 10° N
Molniya-1 3.7 21:28:22 10° NW 21:30:57 62° NE 21:32:45 25° ESE
Cosmos 1939 Rocket 3.4 21:28:59 10° S 21:32:52 56° W 21:36:45 10° NNW
Cosmos 2315 Rocket 4.0 21:27:17 10° N 21:33:34 83° E 21:39:54 10° S
SL-8 R/B 4.0 21:29:41 10° WNW 21:34:23 57° SSW 21:37:21 22° SE
CZ-4B DEB 2.4 21:35:24 27° SSE 21:36:44 66° ENE 21:39:36 10° N
BREEZE M DEB (TANK) 3.7 21:29:09 10° W 21:38:25 68° N 21:41:00 16° ENE
Helios 1A 3.1 21:34:29 12° SSE 21:38:29 81° WSW 21:42:46 10° NNW
Nadezhda 2 Rocket 4.4 21:33:11 10° S 21:39:18 70° E 21:45:33 10° NNE
Cosmos 1437 Rocket 4.3 21:39:49 19° E 21:39:49 19° E 21:42:30 10° NE
EXPRESS MD2 3.3 21:37:01 10° W 21:39:54 74° NNW 21:45:21 10° ENE
Cosmos 2263 Rocket 3.6 21:35:01 10° NW 21:40:09 36° WSW 21:45:16 10° S
ATLAS 2AS CENTAUR R/B 3.1 21:32:21 10° SW 21:40:10 89° SE 21:48:23 10° NE
CENTAUR R/B 4.1 21:34:26 10° NW 21:41:14 35° NNE 21:47:56 12° E
Okean 1-7 Rocket 3.7 21:38:20 10° NNW 21:42:50 77° W 21:47:07 11° S
SL-08 RB Rocket 4.3 21:43:06 24° ESE 21:45:15 39° ENE 21:49:28 10° N
Cosmos 1844 Rocket 2.8 21:41:00 10° NNW 21:46:41 66° ENE 21:50:09 24° SE
Envisat 4.4 21:42:26 10° SSW 21:47:07 37° W 21:51:50 10° NNW
Cosmos 1666 4.5 21:48:12 17° ENE 21:48:12 17° ENE 21:50:17 10° NE
Cosmos 2278 Rocket 3.3 21:42:47 10° NNW 21:47:50 32° NE 21:50:48 20° E
Cosmos 2322 Rocket 3.6 21:45:08 10° SW 21:50:31 42° NW 21:55:56 10° NNE
Resurs 01 Rocket 4.1 21:47:24 10° SW 21:50:43 20° W 21:54:04 10° NW
NOSS 3-4 (A) 4.3 21:48:40 20° SSE 21:51:20 27° ESE 21:56:34 10° ENE
NOSS 3-4 (C) 4.3 21:49:03 21° SE 21:51:26 27° ESE 21:56:39 10° ENE
H-2A R/B 4.4 21:51:59 10° ENE 21:53:07 11° NE 21:54:20 10° NE
Cosmos 1745 Rocket 4.4 21:52:22 23° SE 21:55:32 40° E 22:01:13 10° NNE
YAOGAN 6 3.8 21:52:21 11° SSW 21:55:34 39° W 21:58:54 10° NNW
MetOp-B 4.1 21:52:17 22° SSE 21:55:51 75° ENE 22:01:13 10° NNW
SPOT 5 3.1 21:54:51 29° SE 21:56:59 50° ENE 22:01:25 10° N
ATLAS CENTAUR R/B 3.7 21:56:11 10° N 21:57:35 12° NNE 21:58:59 10° NE
Lacrosse 5 2.1 21:54:54 10° WSW 21:59:58 70° NW 22:05:03 10° NE
Cosmos 2237 4.1 21:55:45 10° SSW 22:01:24 74° ESE 22:07:07 10° NNE
Meteor 1-29 2.8 22:00:21 10° NNE 22:03:47 87° WNW 22:05:42 24° SSW
SL-16 R/B 4.0 21:59:01 10° WSW 22:04:08 34° NW 22:09:19 10° NNE
USA 245 3.6 22:02:23 32° SE 22:04:20 63° ENE 22:08:11 10° N
Cosmos 2219 Rocket 2.7 22:03:37 28° SE 22:05:32 36° ESE 22:10:40 10° NE
H-2A R/B 2.2 22:04:21 32° SE 22:06:25 53° ENE 22:11:14 10° N
Cosmos 1302 Rocket 3.9 22:03:39 10° SSW 22:08:54 74° ESE 22:14:11 10° NNE
Cosmos 1743 3.2 22:09:00 38° E 22:09:00 38° E 22:12:29 10° NNE
Cosmos 1626 Rocket 4.2 22:06:48 10° N 22:10:50 37° ENE 22:11:28 35° E
OPS 6432 4.0 22:08:07 10° SW 22:11:33 82° SE 22:14:35 10° NE
Cosmos 1486 Rocket 4.2 22:06:35 10° NNW 22:11:49 70° WSW 22:14:42 27° S
Helios 1B rocket 3.0 22:10:10 10° N 22:14:13 57° WNW 22:18:14 10° SSW
Landsat 7 4.4 22:13:22 34° ESE 22:14:35 41° ENE 22:19:03 10° N
Cosmos 1892 Rocket 3.7 22:10:38 10° NNW 22:15:04 74° W 22:17:11 30° S
Cosmos 2322 4.0 22:11:21 10° SW 22:16:59 69° WNW 22:22:41 10° NNE
SeaSat 1 3.2 22:14:47 10° NNE 22:19:36 54° NW 22:24:23 10° SW
Cosmos 2360 Rocket 2.9 22:16:18 10° SW 22:21:49 54° WNW 22:27:21 10° NNE
Cosmos 1241 Rocket 4.4 22:20:39 10° SSW 22:27:12 80° ESE 22:33:41 10° NE
COSMOS 2428 2.6 22:24:02 10° SSW 22:29:46 87° ESE 22:35:33 10° NNE
Terra 2.4 22:29:12 38° E 22:29:56 40° ENE 22:34:23 10° N
Cosmos 1844 3.7 22:25:12 10° NNW 22:30:54 77° WSW 22:33:09 39° SSE
Cosmos 1544 Rocket 3.6 22:28:56 32° SSW 22:31:00 80° W 22:35:28 10° N
NOSS 3-2 (A) 4.1 22:24:07 10° NW 22:31:33 75° SW 22:35:36 33° SSE
Cosmos 724 4.3 22:30:19 10° NW 22:36:12 71° WSW 22:38:14 41° SSE
Meteor 1-12 Rocket 4.3 22:34:00 19° SSW 22:38:12 78° WNW 22:43:54 10° N
Nadezhda 1 Rocket 4.0 22:35:07 10° N 22:41:29 89° W 22:44:14 37° S
Cosmos 2333 Rocket 2.2 22:41:26 48° SSE 22:42:37 57° ESE 22:48:10 10° NE
Cosmos 1455 Rocket 3.3 22:41:28 36° SSW 22:43:10 68° WNW 22:47:38 10° N
ATLAS 3B R/B 4.0 22:38:53 10° NW 22:44:31 29° WSW 22:48:11 18° SSW
GP-B 3.3 22:42:15 10° N 22:46:28 56° ENE 22:46:28 56° ENE
Cosmos 1975 4.0 22:46:18 23° SW 22:48:21 40° WNW 22:52:09 10° N
Cosmos 2333 4.3 22:42:49 10° SSW 22:48:27 75° WNW 22:54:07 10° NNE
Aureole 2 Rocket 3.7 22:51:22 34° N 22:51:22 34° N 22:53:18 10° NNE
Meteor 1-4 Rocket 4.5 22:52:18 22° NE 22:52:18 22° NE 22:53:58 10° NNE
Cosmos 1354 Rocket 4.3 22:45:48 10° NNW 22:51:05 62° WSW 22:52:33 44° SSW
Abrixas rocket 4.4 22:48:19 10° W 22:49:45 20° WSW 22:49:45 20° WSW
Nimbus 7 Rocket 4.3 22:47:09 10° NNE 22:53:03 75° ESE 22:54:56 45° S
Cosmos 2237 Rocket 2.4 22:55:06 48° E 22:55:06 48° E 23:00:11 10° NE
Cosmos 972 Rocket 4.4 22:57:11 50° ESE 22:57:18 50° E 23:03:13 10° NNE
Cosmos 1980 3.6 23:01:36 60° ESE 23:01:47 60° ESE 23:07:23 10° NNE
Cosmos 1709 Rocket 4.0 23:02:04 55° SE 23:03:05 62° E 23:09:17 10° NNE
DMSP B5D2-2 3.9 22:59:02 10° NNE 23:04:20 82° ESE 23:05:06 65° S
Cosmos 2181 Rocket 4.1 22:59:00 10° N 23:05:25 64° ENE 23:06:36 54° SE
SPOT 1/Viking Rocket 4.2 23:06:52 39° SW 23:08:17 50° W 23:13:23 10° NNW
Spot 4 4.3 23:08:55 47° ENE 23:08:55 47° ENE 23:13:19 10° N
Cosmos 1818 4.1 23:04:14 10° SW 23:09:35 59° NW 23:15:00 10° NNE
NOSS 3-2 (C) 4.3 23:04:27 10° NW 23:11:47 58° WSW 23:14:27 41° S
Cosmos 1437 Rocket 4.0 23:15:13 36° W 23:15:44 38° WNW 23:19:27 10° N
CARTOSAT-1 3.7 23:16:06 70° WNW 23:16:06 70° WNW 23:20:06 10° NNW
USA 81 3.9 23:15:38 10° N 23:20:57 90° ENE 23:21:11 83° S
Cosmos 2297 3.7 23:15:50 10° NNW 23:21:30 65° ENE 23:21:56 63° E
Cosmos 1777 Rocket 4.5 23:17:03 10° NNW 23:22:11 48° ENE 23:22:15 48° ENE
Cosmos 1666 4.0 23:23:08 38° WNW 23:23:08 38° WNW 23:26:40 10° N
COSMOS 2455 3.0 23:18:14 10° NNW 23:24:14 61° NE 23:25:03 55° E
DNEPR-1 R/B 3.8 23:20:30 10° NW 23:24:28 69° N 23:24:28 69° N
H-2A R/B 2.5 23:29:06 59° N 23:29:06 59° N 23:32:47 10° NNW
NOSS 0 Rocket 3.9 23:26:23 46° SW 23:28:26 84° WNW 23:34:43 10° NNE
Cosmos 1844 Rocket 4.5 23:25:51 10° NW 23:30:02 22° W 23:31:49 19° SW
Cosmos 1707 4.5 23:26:30 10° N 23:28:36 27° NNE 23:28:36 27° NNE
BREEZE-M DEB (TANK) 3.9 23:12:30 10° WSW 23:30:41 86° NNW 23:33:09 34° ENE
Cosmos 2278 Rocket 2.6 23:26:41 10° NW 23:32:09 50° WSW 23:32:38 49° SW
CZ-2C R/B 4.0 23:33:09 34° NE 23:33:09 34° NE 23:37:02 10° N
Cosmos 1953 Rocket 4.3 23:28:22 10° N 23:31:48 48° NNE 23:31:48 48° NNE
CENTAUR R/B 3.0 23:25:05 10° NW 23:32:55 90° ENE 23:35:06 55° SE
ATLAS CENTAUR R/B 2.8 23:33:40 10° NNW 23:35:50 32° NNW 23:35:50 32° NNW
NOSS 3-4 (A) 3.7 23:35:45 12° SW 23:41:40 69° NW 23:48:15 10° NE
NOSS 3-4 (C) 3.7 23:36:10 13° SW 23:41:46 70° NW 23:48:21 10° NE
CZ-2C R/B 4.0 23:37:26 10° NNE 23:40:45 27° ENE 23:40:45 27° ENE
RESURS DK-1 4.1 23:45:16 28° NNE 23:45:16 28° NNE 23:47:18 10° NNE
Lacrosse 5 3.7 23:39:09 10° WNW 23:43:39 30° NNW 23:48:08 10° NE
H-2A R/B 3.8 23:44:59 20° WSW 23:46:09 21° W 23:49:56 10° NW
Cosmos 2219 Rocket 3.3 23:45:14 16° WSW 23:49:26 41° NW 23:54:47 10° NNE
Cosmos 968 Rocket 4.1 23:48:14 10° NNW 23:52:41 46° W 23:52:41 46° W
